www.pogodaiklimat.ru

Погода и климат >> Архив погоды >> Великобритания >> Вэлли


ПОГОДА в Вэлли

  • Прогноз погоды в Вэлли
  • Монитор погоды в Вэлли

АРХИВ ПОГОДЫ в Вэлли

Время (UTC), дата Ветер
(напр.,м/с)
 
Видим.   Явления Облачность Т
(С)
Тd
(С)
f
(%)
Тe
(С)
Тes
(С)
Комфортность P
(гПа)
Po
(гПа)
Тmin
(С)
Tmax
(С)
R
(мм)
R24
(мм)
S
(см)
10 12.06 С 9
{13}
3500 м слаб. морось 10/10 150 м
[Sc]
+10.8 +10.1 95 +7 +7 1013.7 1012.3
11 12.06 С 8
{13}
5000 м слаб. морось 10/10 150 м
[Frnb]
+10.9 +10.0 94 +7 +7 1013.8 1012.4
12 12.06 С 9
{13}
3700 м в посл. час дождь н/о +11.3 +10.4 94 +7 +7 1013.3 1011.9 6
13 12.06 С 10
{15}
4100 м слаб. морось 10/10 180 м
[Sc]
+11.5 +10.5 94 +8 +8 1012.9 1011.5
14 12.06 С 8
{14}
12 км в посл. час дождь н/о +11.8 +10.2 90 +8 +8 1012.5 1011.1
15 12.06 С 8
{13}
21 км н/о +12.0 +10.0 88 +9 +9 1011.8 1010.4
16 12.06 С 7 26 км н/о +12.3 +9.6 84 +9 +9 1011.5 1010.1
17 12.06 С 7 40 км слаб. морось 10/10 700 м
[Sc]
+12.1 +9.9 86 +9 +9 1010.9 1009.5
18 12.06 С 7 6000 м дым н/о +11.8 +10.1 89 +9 +9 1010.5 1009.1 +12.4 6
19 12.06 С 6 30 км слаб. дождь 10/9 240 м
[Sc As op]
+11.9 +10.4 91 +9 +9 1009.6 1008.2
20 12.06 С 6 12 км слаб. дождь 10/10 300 м
[Sc]
+11.8 +10.6 92 +9 +9 1009.2 1007.8
21 12.06 С 6 17 км слаб. морось с дождем н/о +11.7 +10.7 94 +9 +9 1008.9 1007.5
22 12.06 С 6 18 км слаб. дождь н/о +11.7 +10.7 94 +9 +9 1008.2 1006.8
23 12.06 С 5 15 км слаб. дождь н/о +11.7 +10.9 95 +9 +9 1007.6 1006.2
00 13.06 С 7 12 км слаб. дождь н/о +11.6 +10.7 94 +8 +8 1007.1 1005.7 1
01 13.06 С 8 19 км в посл. час дождь н/о +11.5 +10.6 94 +8 +8 1006.3 1004.9
02 13.06 С 8 13 км в посл. час дождь н/о +11.5 +10.6 94 +8 +8 1005.5 1004.2
03 13.06 С 7 10 км ливневой дождь н/о +11.3 +10.6 95 +8 +8 1005.2 1003.8
04 13.06 С 9 10 км слаб. дождь н/о +11.1 +10.3 95 +7 +7 1005.0 1003.6
05 13.06 С 10
{14}
9000 м дождь н/о +10.5 +9.5 94 +6 +6 1004.8 1003.4
06 13.06 С 9
{13}
16 км слаб. дождь 9/9 270 м
[Frnb Cs]
+10.6 +9.3 92 +6 +6 1004.9 1003.5 +10.4 4
07 13.06 С 11
{14}
16 км слаб. дождь 10/10 300 м
[Sc]
+10.5 +9.1 91 +6 +6 1005.1 1003.7
08 13.06 С 8
{15}
25 км слаб. дождь 10/10 300 м
[Frnb]
+10.8 +9.3 90 +7 +7 1005.1 1003.7
09 13.06 С 8
{14}
30 км в посл. час дождь 10/9 360 м
[St Ac trans]
+11.3 +9.5 89 +8 +8 1005.0 1003.6
10 13.06 С 7 30 км в посл. час дождь 10/10 300 м
[Sc]
+10.9 +9.0 88 +7 +7 1005.1 1003.7
11 13.06 С 7 30 км 10/10 300 м
[Sc]
+11.8 +8.2 79 +9 +9 1005.1 1003.8
12 13.06 С 6 40 км {дождь} 9/9 420 м
[Sc]
+11.9 +7.6 75 +9 +10 1005.2 1003.8 0.2
13 13.06 С 6 60 км 9/9 540 м
[Sc]
+11.8 +7.4 74 +9 +10 1005.3 1003.9
14 13.06 С 5 30 км н/о +12.4 +8.1 75 +10 +10 1005.1 1003.7
15 13.06 СЗ 4 60 км 9/9 450 м
[Cu Sc]
+12.2 +7.5 73 +10 +11 1005.0 1003.6
16 13.06 З 5 60 км 9/9 420 м
[Cu Sc]
+11.8 +7.8 76 +9 +10 1005.0 1003.6
17 13.06 З 3 7000 м слаб. морось 10/10 180 м
[Sc]
+10.4 +8.9 90 +8 +8 1004.9 1003.5
18 13.06 З 2 29 км в посл. час дождь н/о +10.2 +9.3 94 +9 +9 1004.9 1003.5 +12.7 0.2
19 13.06 ЮЗ 3 30 км н/о +10.7 +8.4 86 +9 +9 1005.0 1003.6
20 13.06 З 5 6000 м морось с дождем н/о +10.4 +7.9 84 +7 +7 1005.3 1003.9
21 13.06 З 2 26 км в посл. час дождь н/о +10.3 +8.4 88 +9 +9 1005.7 1004.3
22 13.06 З 2 40 км н/о +10.0 +7.4 84 +8 +8 1005.8 1004.4
23 13.06 ЮЗ 3 40 км н/о +10.3 +7.1 81 +8 +8 1005.7 1004.3
00 14.06 ЮЗ 4 40 км н/о +10.5 +8.1 85 +8 +8 1005.3 1004.0 0.0
01 14.06 Ю 5 30 км н/о +10.2 +8.7 90 +7 +7 1004.9 1003.5
02 14.06 Ю 5 28 км н/о +10.0 +8.8 92 +7 +7 1004.7 1003.4
03 14.06 Ю 3 30 км н/о +9.7 +8.4 92 +8 +8 1004.5 1003.1
04 14.06 ЮВ 3 25 км н/о +8.7 +7.6 93 +6 +6 1004.5 1003.1
05 14.06 ЮВ 3 40 км н/о +8.8 +7.7 93 +6 +6 1004.6 1003.2
06 14.06 З 2 50 км н/о +10.4 +8.5 88 +9 +9 1004.9 1003.5 +8.5 0.0
07 14.06 ЮЗ 3 50 км н/о +11.2 +8.1 81 +10 +10 1005.0 1003.6
08 14.06 ЮЗ 4 45 км н/о +11.5 +8.0 79 +9 +9 1005.4 1004.1
09 14.06 Ю 4 35 км н/о +12.6 +9.0 79 +11 +11 1005.9 1004.5
10 14.06 Ю 7 30 км н/о +12.8 +9.3 79 +10 +10 1006.2 1004.8
11 14.06 Ю 7 30 км н/о +13.9 +9.3 74 +12 +12 1006.4 1005.0
12 14.06 Ю 8 30 км н/о +13.6 +8.9 73 +11 +11 1006.5 1005.1
13 14.06 Ю 8 30 км н/о +13.8 +9.4 75 +11 +11 1006.5 1005.1
14 14.06 Ю 8 25 км н/о +13.6 +9.6 77 +11 +11 1006.6 1005.2
15 14.06 Ю 8 21 км н/о +14.2 +9.1 71 +12 +12 1006.6 1005.2
16 14.06 Ю 10
{13}
20 км слаб. ливневой дождь н/о +12.9 +9.3 79 +10 +10 1006.7 1005.3
17 14.06 Ю 7 18 км в посл. час дождь н/о +13.8 +10.2 79 +11 +11 1006.8 1005.5
18 14.06 Ю 9 18 км н/о +13.4 +9.9 79 +11 +11 1006.8 1005.5 +14.5 0.0
19 14.06 Ю 8 11 км н/о +13.1 +10.3 83 +10 +10 1006.9 1005.5
20 14.06 Ю 9 12 км слаб. ливневой дождь н/о +12.9 +10.1 83 +10 +10 1006.9 1005.6
21 14.06 Ю 9
{13}
13 км в посл. час дождь н/о +12.5 +10.5 88 +9 +9 1007.2 1005.9
22 14.06 Ю 9 15 км слаб. морось 9/9 540 м
[Sc]
+12.6 +10.1 85 +9 +9 1007.4 1006.0
23 14.06 Ю 8 15 км дождь {морось} 10/5 700 м
[Sc As trans]
+12.5 +9.8 84 +9 +9 1007.2 1005.8
00 15.06 Ю 8 10 км слаб. дождь {морось} 10/9 600 м
[Sc As trans]
+12.3 +10.1 86 +9 +9 1007.0 1005.7 0.0
01 15.06 Ю 8 10 км слаб. морось с дождем н/о +12.2 +9.9 86 +9 +9 1007.0 1005.6
02 15.06 ЮВ 6 11 км дождь 10/10 800 м
[Sc]
+11.4 +10.0 91 +8 +8 1006.7 1005.4
03 15.06 ЮВ 5 15 км слаб. морось с дождем н/о +11.5 +9.9 90 +9 +9 1006.2 1004.8
04 15.06 ЮВ 6 18 км слаб. дождь 10/9 450 м
[Sc As op]
+11.5 +9.4 87 +9 +9 1005.8 1004.4
05 15.06 ЮВ 9 10 км слаб. дождь 10/10 630 м
[Sc]
+11.6 +8.9 83 +8 +8 1005.3 1003.9
06 15.06 ЮВ 8 24 км слаб. морось {дождь} 9/9 450 м
[Sc]
+11.5 +10.0 90 +8 +8 1004.9 1003.5 +11.2 1
07 15.06 Ю 12
{17}
17 км н/о +11.6 +9.7 88 +7 +7 1005.7 1004.3
08 15.06 Ю 13
{16}
16 км н/о +11.5 +9.0 85 +7 +7 1006.2 1004.8
09 15.06 ЮЗ 9
{15}
16 км н/о +11.3 +9.4 88 +8 +8 1007.2 1005.8
10 15.06 ЮЗ 9 28 км н/о +13.2 +10.0 81 +10 +10 1007.8 1006.5
11 15.06 ЮЗ 9 26 км н/о +12.8 +9.3 79 +10 +10 1008.4 1007.0
12 15.06 Ю 9 35 км н/о +14.3 +10.2 76 +12 +12 1009.1 1007.8
13 15.06 ЮЗ 9 35 км н/о +14.1 +9.2 72 +11 +11 1009.3 1007.9
14 15.06 Ю 8 19 км н/о +15.1 +7.8 62 +13 +13 1009.4 1008.0
15 15.06 Ю 9 24 км н/о +15.1 +8.2 63 +13 +13 1009.6 1008.2
16 15.06 Ю 8 26 км н/о +14.5 +8.2 66 +12 +12 1009.7 1008.3
17 15.06 Ю 8 30 км н/о +13.9 +7.6 66 +11 +11 1009.9 1008.5
18 15.06 Ю 9 25 км н/о +13.4 +8.3 71 +11 +11 1010.1 1008.7 +15.4
19 15.06 Ю 9 23 км н/о +12.3 +8.1 76 +9 +9 1010.1 1008.7
20 15.06 Ю 9 28 км н/о +11.8 +8.6 81 +8 +8 1010.2 1008.8
21 15.06 Ю 8 30 км 4/3 900 м
[Cu Sc Cs]
+11.6 +8.4 81 +8 +8 1010.4 1009.1
22 15.06 Ю 8 24 км 4/1 1200 м
[Sc Cs]
+11.4 +9.0 85 +8 +8 1010.7 1009.3
23 15.06 Ю 7 26 км 5/1 700 м
[Sc As op Cs]
+11.6 +9.5 87 +8 +8 1010.8 1009.4
00 16.06 Ю 8 23 км 4/1 660 м
[Sc As trans Cs]
+11.6 +9.5 87 +8 +8 1010.8 1009.4
01 16.06 Ю 7 19 км н/о +11.3 +9.7 90 +8 +8 1010.6 1009.2
02 16.06 ЮЗ 7 25 км н/о +11.4 +9.7 89 +8 +8 1010.5 1009.2
03 16.06 Ю 7 18 км н/о +11.2 +9.7 90 +8 +8 1010.4 1009.0
04 16.06 Ю 7 25 км 8/4 300 м
[Cu Sc Ac As Cs]
+11.4 +10.2 92 +8 +8 1010.3 1008.9
05 16.06 Ю 6 30 км осадки на расстоянии 8/5 210 м
[Cb cap Ac As]
+11.9 +10.0 88 +9 +9 1010.0 1008.6
06 16.06 Ю 7 30 км 8/5 500 м
[Cu med, cong Ac inh Cc]
+12.5 +10.6 88 +10 +10 1010.2 1008.8 +11.0
07 16.06 Ю 7 23 км н/о +12.5 +10.2 86 +10 +10 1010.4 1009.0
08 16.06 Ю 7 28 км н/о +13.6 +11.0 84 +11 +11 1010.7 1009.3
09 16.06 Ю 6 45 км н/о +13.8 +9.5 75 +12 +12 1010.7 1009.4
10 16.06 Ю 5 27 км н/о +15.0 +11.5 80 +14 +14 1010.5 1009.1
11 16.06 Ю 8 30 км в посл. час дождь н/о +15.4 +12.7 84 +13 +13 1010.4 1009.0
12 16.06 Ю 10
{13}
15 км н/о +15.7 +12.3 80 +14 +14 1010.5 1009.1 0.0
13 16.06 Ю 12
{16}
21 км н/о +14.7 +10.0 73 +12 +12 1010.7 1009.4
14 16.06 Ю 12
{18}
14 км н/о +15.9 +11.8 77 +14 +14 1010.9 1009.5
15 16.06 Ю 12
{15}
12 км н/о +15.0 +12.0 82 +12 +12 1011.0 1009.7
16 16.06 Ю 11
{14}
4200 м слаб. морось н/о +13.5 +11.8 89 +10 +10 1010.7 1009.4
17 16.06 Ю 11
{15}
15 км слаб. морось н/о +13.4 +12.6 95 +10 +10 1010.0 1008.7
18 16.06 Ю 12
{15}
12 км в посл. час дождь н/о +13.4 +12.7 96 +10 +10 1009.8 1008.4 +16.5 1
19 16.06 Ю 13
{17}
8000 м дым н/о +13.5 +12.3 92 +10 +10 1009.7 1008.3
20 16.06 Ю 14
{19}
7000 м слаб. ливневой дождь н/о +13.0 +12.3 96 +9 +9 1009.5 1008.1
21 16.06 Ю 15
{20}
8000 м в посл. час дождь н/о +13.2 +12.3 94 +9 +9 1010.0 1008.6
22 16.06 Ю 13
{20}
6000 м дымка н/о +13.0 +12.2 95 +9 +9 1010.0 1008.7
23 16.06 Ю 12
{19}
7000 м дымка н/о +12.7 +11.9 95 +9 +9 1010.6 1009.2
00 17.06 Ю 11
{15}
8000 м дым н/о +12.7 +11.7 94 +9 +9 1010.8 1009.4 1
01 17.06 Ю 11
{14}
8000 м дым н/о +12.3 +11.2 93 +8 +8 1011.0 1009.6
02 17.06 Ю 10
{15}
10 км дым н/о +12.4 +11.3 93 +9 +9 1011.2 1009.8
03 17.06 Ю 10
{14}
9000 м дым н/о +12.3 +11.3 94 +9 +9 1011.2 1009.8
04 17.06 Ю 9
{13}
9000 м дымка н/о +12.3 +11.4 94 +9 +9 1011.4 1010.0
05 17.06 Ю 10 10 км н/о +12.5 +11.5 94 +9 +9 1011.5 1010.1
06 17.06 Ю 10
{13}
25 км 9/4 180 м
[St Ci sp]
+12.8 +11.6 92 +9 +9 1011.7 1010.3 +12.2 1
07 17.06 Ю 9 25 км 9/1 240 м
[Frnb Ci sp]
+13.0 +11.7 92 +10 +10 1012.0 1010.6
08 17.06 Ю 10
{13}
25 км 9/4 240 м
[Sc Ci fib]
+13.9 +12.2 89 +11 +11 1012.4 1011.0
09 17.06 Ю 9
{13}
25 км 9/3 240 м
[St Ci fib]
+14.6 +12.3 86 +12 +13 1012.6 1011.3
10 17.06 Ю 10
{13}
25 км 9/4 240 м
[Sc Ci fib]
+14.5 +11.9 84 +12 +12 1012.8 1011.4
11 17.06 Ю 12
{14}
25 км 9/5 240 м
[Cu Sc Ci sp]
+15.1 +12.3 83 +12 +12 1012.9 1011.5
12 17.06 Ю 11
{14}
25 км 9/8 330 м
[Cu Sc Ci sp]
+15.3 +12.5 83 +13 +13 1013.1 1011.8
13 17.06 Ю 11
{14}
25 км 9/4 400 м
[Cu Sc Ci sp]
+15.8 +12.7 82 +14 +14 1013.2 1011.8
14 17.06 Ю 11
{15}
25 км 6/3 450 м
[Cu Sc Ci sp]
+16.1 +12.7 80 +14 +14 1013.1 1011.7
15 17.06 Ю 11
{14}
25 км 6/3 450 м
[Cu Sc Ci fib]
+16.1 +12.9 81 +14 +14 1013.1 1011.7
16 17.06 Ю 10
{13}
25 км 6/1 450 м
[Cu hum Ci fib]
+15.5 +12.1 80 +13 +13 1013.1 1011.7
17 17.06 Ю 11
{14}
25 км 6/1 450 м
[Cu hum Ci fib]
+14.9 +11.8 82 +12 +12 1013.1 1011.8
18 17.06 Ю 10
{13}
11 км н/о +14.7 +11.6 82 +12 +12 1013.0 1011.6 +17.0
19 17.06 Ю 10 11 км н/о +13.7 +11.2 85 +11 +11 1013.1 1011.8
20 17.06 Ю 9 10 км дым н/о +13.0 +11.2 89 +10 +10 1013.4 1012.0
21 17.06 Ю 10 11 км н/о +12.7 +11.5 92 +9 +9 1013.5 1012.2
22 17.06 Ю 9 10 км дым н/о +12.5 +11.5 94 +9 +9 1013.8 1012.4
23 17.06 Ю 9 9000 м дым н/о +12.5 +11.5 94 +9 +9 1013.9 1012.6
00 18.06 Ю 9 10 км н/о +12.4 +11.5 94 +9 +9 1013.8 1012.4
01 18.06 Ю 8 9000 м дымка н/о +12.6 +11.8 95 +9 +9 1013.7 1012.4
02 18.06 ЮЗ 9 11 км н/о +12.4 +11.5 94 +9 +9 1013.4 1012.0
03 18.06 ЮЗ 9 10 км н/о +12.2 +11.3 94 +9 +9 1013.3 1011.9
04 18.06 ЮЗ 7 10 км н/о +12.4 +11.5 94 +9 +9 1013.2 1011.8
05 18.06 Ю 6 11 км н/о +12.3 +11.4 94 +9 +9 1013.3 1011.9
06 18.06 ЮЗ 6 30 км 9/8 180 м
[St Ac trans]
+12.4 +11.3 93 +10 +10 1013.4 1012.0 +12.2
07 18.06 Ю 6 20 км 9/9 150 м
[St]
+12.6 +11.4 92 +10 +10 1013.8 1012.4
08 18.06 ЮЗ 5 20 км 9/9 150 м
[St]
+13.1 +11.7 91 +11 +11 1013.8 1012.4
09 18.06 ЮЗ 5 25 км 9/9 150 м
[St]
+13.2 +11.6 90 +11 +12 1013.7 1012.3
10 18.06 ЮЗ 4 30 км 9/9 180 м
[St]
+13.6 +11.4 87 +12 +13 1013.6 1012.2
11 18.06 ЮЗ 4 30 км 8/4 150 м
[St Ac trans]
+13.9 +11.7 87 +13 +17 1013.4 1012.0
12 18.06 ЮЗ 4 14 км н/о +14.1 +11.5 84 +13 +19 1013.5 1012.1
13 18.06 ЮЗ 4 35 км 8/1 720 м
[Cu hum Cs]
+14.8 +11.9 83 +14 +22 1013.4 1012.0
14 18.06 ЮЗ 5 35 км 8/1 720 м
[Cu hum Ac trans Ci fib]
+15.8 +11.2 74 +15 +19 1013.1 1011.7
15 18.06 ЮЗ 4 35 км 8/1 750 м
[Cu hum Ci fib]
+15.9 +10.6 71 +15 +22 1012.6 1011.2
16 18.06 ЮЗ 4 35 км 8/1 750 м
[Cu med, cong Ac trans Ci fib]
+15.6 +7.9 60 +15 +19 1012.2 1010.8
17 18.06 ЮЗ 3 35 км 8/1 750 м
[Cu hum Ci fib]
+15.4 +8.0 61 +15 +19 1011.8 1010.4
18 18.06 ЮЗ 2 40 км 9/1 750 м
[Cu med, cong Ac trans Ci sp]
+14.9 +8.4 65 +15 +16 1011.6 1010.2 +17.1
19 18.06 Ю 2 35 км 9/6 900 м
[Sc Ci sp]
+13.8 +9.0 73 +13 +14 1011.5 1010.1
20 18.06 ЮЗ 3 35 км 9/5 1500 м
[Sc Ac trans Ci sp]
+13.2 +9.8 80 +12 +12 1011.5 1010.1
21 18.06 ЮЗ 3 29 км н/о +13.0 +10.0 82 +12 +12 1011.5 1010.1
22 18.06 ЮЗ 3 30 км н/о +12.8 +10.1 84 +11 +11 1011.2 1009.8
23 18.06 ЮЗ 3 28 км н/о +12.5 +10.2 86 +11 +11 1011.1 1009.7
00 19.06 Ю 3 25 км н/о +11.5 +9.9 90 +10 +10 1010.4 1009.0
01 19.06 Ю 4 22 км н/о +11.8 +10.0 89 +10 +10 1009.7 1008.3
02 19.06 Ю 5 30 км н/о +12.3 +10.6 89 +10 +10 1009.5 1008.1
03 19.06 Ю 4 30 км н/о +12.5 +10.5 88 +10 +10 1009.2 1007.8
04 19.06 Ю 4 25 км н/о +11.6 +10.1 91 +9 +9 1009.0 1007.6
05 19.06 ЮЗ 4 22 км н/о +12.2 +11.0 92 +10 +10 1009.0 1007.6
06 19.06 Ю 4 21 км 9/3 150 м
[Sc Ac As]
+12.6 +11.5 93 +11 +11 1009.1 1007.7 +11.3
07 19.06 ЮЗ 3 20 км 9/5 150 м
[St Ac trans]
+13.1 +11.8 92 +12 +13 1008.9 1007.5
08 19.06 СЗ 4 20 км 4/3 210 м
[Sc Ac trans]
+14.3 +11.4 83 +13 +16 1008.9 1007.5

 

Местоположение метеостанции Вэлли (Великобритания): широта 53.25 долгота -4.53 высота над уровнем моря 10 м.

В архиве по умолчанию представлена погода в Вэлли за последнюю неделю. Архивные данные за месяц целиком и за предыдущие месяцы, начиная с января 2011 года, Вы можете получить, выбрав интересующий диапазон дат из раскрывающегося списка и нажав кнопку "Ввод!".


*Определитесь, кто Вы:
робот инопланетянин человек

Внимание! Время в таблицах - всемирное. Для получения местного времени необходимо прибавить поправку, которая равна 0 ч.

Смотрите также архив погоды в соседних городах и на ближайших метеорологических станциях:

Погода в Моне (Великобритания) (11 км)
Погода в Кейпл Кериг (Великобритания) (43 км)
Погода в Абердароне (Великобритания) (54 км)
Погода в Риле (Великобритания) (69 км)
Погода в Бала (Великобритания) (75 км)
Погода на Озере Вирнви (Великобритания) (90 км)
Погода на Острове Мэн (Великобритания) (93 км)
Погода в Кросби (Великобритания) (101 км)
Погода в Гавардене (Великобритания) (104 км)
Погода в Троскоеде (Великобритания) (107 км)

Пояснения к столбцам:

Ветер - указаны скорость ветра в м/с - средняя за 10 мин, порывы в срок и между сроками (в фигурных скобках) и направление, откуда дует ветер: С - северный, СВ - северо-восточный, В - восточный, ЮВ - юго-восточный, Ю - южный, ЮЗ - юго-западный, З - западный, СЗ - северо-западный.
Видимость - горизонтальная дальность видимости в метрах или километрах. При видимости от 1 до 10 км при отсутствии осадков обычно наблюдается дымка, при ухудшении видимости до 1 км и менее - туман. В сухую погоду видимость может ухудшаться дымом, пылью или мглою.
Явления - указаны атмосферные явления, наблюдавшиеся в срок или в последний час перед сроком; фигурными скобками обозначены явления, наблюдавшиеся между сроками (за 1-3 часа до срока); квадратными скобками обозначены град или гололедные отложения с указанием их диаметра в мм.
Облачность - указаны через наклонную черту общая и нижняя облачность в баллах и высота нижней границы облаков в метрах; квадратными скобками обозначены формы облаков: Ci - перистые, Cs - перисто-слоистые, Cc - перисто-кучевые, Ac - высококучевые, As - высокослоистые, Sc - слоисто-кучевые, Ns - слоисто-дождевые, Cu - кучевые, Cb - кучево-дождевые. Подробнее классификацию облаков см. в Атласе облаков (PDF).
T - Температура воздуха - температура, измеренная на высоте 2 м над землей.
Td - Температура точки росы - температура, при понижении до которой содержащийся в воздухе водяной пар достигнет насыщения.
f - Относительная влажность воздуха - влажноcть воздуха, измеренная на высоте 2 м над землей.
Te - Эффективная температура - температура, которую ощущает одетый по сезону человек в тени. Характеристика душности погоды. При расчете учитывается влияние влажности воздуха и скорости ветра на теплоощущения человека.
Tes - Эффективная температура на солнце - температура, которую ощущает человек, с поправкой на солнечный нагрев. Характеристика знойности погоды. Зависит от высоты солнца над горизонтом, облачности и скорости ветра. Ночью, в пасмурную погоду, а также при ветре 12 м/с и более поправка равна нулю.
P - Атмосферное давление - приведенное к уровню моря атмосферное давление.
Po - Атмосферное давление - измеренное на уровне метеостанции атмосферное давление.
Tmin - Минимальная температура - минимум температуры воздуха на высоте 2 м над землей.
Tmax - Максимальная температура - максимум температуры воздуха на высоте 2 м над землей.
R - Количество осадков - Количество выпавших осадков за период времени, мм. При наведении курсора мыши на число - период времени, за который выпало указанное количество осадков.
R24 - Количество осадков - Количество выпавших осадков за 24 часа, мм.
S - Снежный покров - Высота снежного покрова, см. При наведении курсора мыши на число - состояние снежного покрова и степень покрытия местности в баллах.